Regional Weather Roundup
Issued by NWS

Home | Current Version | Previous Version | Graphics & Text | Print | Product List | Glossary On
Versions: 1 2 3 4 5 6 7 8 9 10 11 12 13 14 15 16 17 18 19 20 21 22 23 24 25 26 27 28 29 30 31 32 33 34 35 36 37 38 39 40 41 42 43 44 45 46 47 48 49 50
000
ASUS45 KABQ 291501
RWRNM
NEW MEXICO REGIONAL WEATHER ROUNDUP
NATIONAL WEATHER SERVICE ALBUQUERQUE NM
900 AM MDT MON AUG 29 2016

NOTE: "FAIR" MEANS FEW OR NO CLOUDS BELOW 12,000 FEET AGL WITH NO
       SIGNIFICANT WEATHER OR OBSTRUCTIONS TO VISION.

      THIS PRODUCT IS RELEASED AS TWO VERSIONS.  ONE VERSION NEAR
      THE TOP OF THE HOUR CONTAINING PRELIMINARY DATA FROM ALBUQUERQUE
      AND OTHER STATIONS.  A FINAL VERSION WITH ADDITIONAL DATA IS
      ISSUED ABOUT 10 MINUTES AFTER THE HOUR.

NMZ501-503-504-510>518-291600-
NORTHWEST PLATEAU/NORTHCENTRAL MOUNTAINS

CITY           SKY/WX    TMP DP  RH WIND       PRES   REMARKS
FARMINGTON     FAIR      59  45  59 SE5       30.31R
SANTA FE       PTSUNNY   61  46  57 N14       30.36S
TAOS           PTSUNNY   54  45  71 NE5       30.43F
ANGEL FIRE     CLOUDY    47  41  79 S3        30.51R

$$
NMZ402-403-502-505>509-291600-
WESTCENTRAL MOUNTAINS/SOUTHWEST MOUNTAINS

CITY           SKY/WX    TMP DP  RH WIND       PRES   REMARKS
GALLUP         FAIR      55  41  59 E7        30.36S
GRANTS         FAIR      52  45  76 NW5       30.39R
SILVER CITY    FAIR      68  49  50 NE5       30.26R

$$
NMZ407-409-411-412-291600-
SOUTHERN DESERTS

CITY           SKY/WX    TMP DP  RH WIND       PRES   REMARKS
DEMING         FAIR      72  56  57 NE12      30.20R
LAS CRUCES     FAIR      72  55  54 NE5       30.21S
HOLLOMAN AFB   FAIR      70  57  63 NW3       30.19R
ALAMOGORDO     FAIR      72  55  56 NW6       30.21R
T OR C         PTSUNNY   72  46  39 VRB5      30.24R

$$
NMZ519>523-291600-
CENTRAL VALLEYS/CENTRAL HIGHLANDS

CITY           SKY/WX    TMP DP  RH WIND       PRES   REMARKS
ALBUQUERQUE    FAIR      66  44  45 VRB3      30.29R
DOUBLE EAGLE   MOSUNNY   66  46  48 NE20G26   30.33R
MORIARTY ARPT  CLOUDY    56  52  86 N3        30.37S
CLINES CORNERS NOT AVBL
BELEN          FAIR      65  45  48 NW7       30.29R
SOCORRO        FAIR      66  46  48 N12       30.27R

$$
NMZ524>526-539-540-291600-
SOUTHCENTRAL MOUNTAINS

CITY           SKY/WX    TMP DP  RH WIND       PRES   REMARKS
RUIDOSO        NOT AVBL

$$
NMZ527>531-291600-
NORTHEAST HIGHLANDS/NORTHEAST PLAINS

CITY           SKY/WX    TMP DP  RH WIND       PRES   REMARKS
LAS VEGAS      PTSUNNY   59  51  75 N12       30.41R
RATON          LGT RAIN  58  50  75 N3        30.36F
CLAYTON        PTSUNNY   66  54  65 W9        30.29R

$$
NMZ532>537-291600-
EASTCENTRAL PLAINS

CITY           SKY/WX    TMP DP  RH WIND       PRES   REMARKS
TUCUMCARI      CLOUDY    67  62  84 W3        30.26R
CANNON AFB     LGT RAIN  65  65 100 N13       30.26R
CLOVIS AIRPORT PTSUNNY   64  61  88 N9        30.26S

$$
NMZ028-029-538-291600-
SOUTHEAST PLAINS

CITY           SKY/WX    TMP DP  RH WIND       PRES   REMARKS
ROSWELL        FAIR      72  58  61 NW5       30.20S
ARTESIA        FAIR      70  61  73 NW3       30.21R
CARLSBAD       FAIR      69  60  73 W3        30.18R
HOBBS          MOSUNNY   68  68 100 NE12      30.21R


$$



USA.gov is the U.S. government's official web portal to all federal, state and local government web resources and services.